COSMOS 970 DEB, 10575

Orbit data source: Space-Track

COSMOS 970 DEB, 10575 is space debris in LEO originally from a launch on Wed, 21 Dec 1977 UTC launched from the Tyuratam Missile And Space Complex (TTMTR). Debris objects in space refer to the collection of defunct objects orbiting the Earth. Examples of debris include non-operational satellites, rocket bodies, and fragments generated from explosions, collisions, or faulty payload assembly.

Loading next visibility...
Identifier
10575, 1977-121S
Orbit
LEO
Country
Flag of CISCIS
Related business
Manufacturer
Unknown
Mission
Spacecraft
Bus & Motor
Unknown
Mass
Unknown
Launch date (UTC)
1977-12-21 (48 years ago)
Launch vehicle
Unknown
Launch site
Tyuratam Missile And Space Complex (TTMTR)
Object type
Payload
Rocket body
Debris
Shape & HBR
Unknown shape, 0.2 m
Radar Cross Section
Medium (>0.1 m² and <1 m²)

Expand to show TLE details & history
Last TLE update: 13 hours ago

TLE from 13 hours ago
0 COSMOS 970 DEB
1 10575U 77121S   26171.44778193  .00000046  00000-0  15460-3 0  9995
2 10575  65.8793 285.6638 0109407 123.6709 314.1098 13.61373704405768
Epoch: 2026-06-20T10:44Z
TLE epoch observation values (Epoch: 2026-06-20T10:44:48.358Z)
Latitude
62.84143°
Longitude
-83.94421°
Altitude
984.63 km
Speed
7.393 km/s
True Right ascension
23h 03m 40s
True Declination
62° 42' 21"
Sunlit
Object was in daylight at epoch
Visualization orbit readout
Latitude
Unknown
Longitude
Unknown
Altitude
Unknown
Speed
Unknown
Apparent Right ascension
Unknown
Apparent Declination
Unknown
Sunlit
N/A
Visualization observer readout
Local Sidereal Time
10:12:24
Azimuth
Unknown
Elevation
Unknown
Doppler factor
Unknown
Orbital elements
Apogee altitude
1,110.267 km
Perigee altitude
948.184 km
Semi-major axis
7,407.362 km
Eccentricity
0.01094
Inclination
65.8793°
RAAN
285.6638°
Arg. of periapsis
123.6709°
True anomaly
313.20102°
Mean anomaly
314.1098°
Eccentric anomaly
313.65627°
Mean motion
3.40446 °/min
Orbital period
105.74 mins
BSTAR
0.0001546
Loading maneuver chart data...
Computing Atmospheric mass density...
Loading historical data...
Loading historical data...
Loading historical data...
Loading historical data...
Loading historical data...
Loading historical data...
Loading historical data...

Documentation

Showing up to 5 results
|